SES-2

Last updated on Thu Aug 13 2026 00:02:59 GMT+0000 (Coordinated Universal Time)

1 37809U 11049A 26224.55484806 -.00000213 00000+0 00000+0 0 9993 2 37809 0.1975 89.3394 0002742 52.9184 291.4751 1.00270671 54520
UTC large
Height (km)
Speed (km/s)
/
Latitude / Longitude
Inclination (degrees)
Orbital Period (minutes)
Azimuth
Elevation
Range (km)
Doppler Factor

Next 0 passes for location: London (51.5072 / 0.1276)

No passes found over London.
SES-2